[[{"header":{"parameterUnit":"m.s-1","parameterCategory":1,"la1":30.2992,"la2":30.254,"lo1":-89.0895,"lo2":-89.0443,"dy":0.0025,"dx":0.0025,"nx":19,"ny":19,"refTime":"2026-04-05T21:00:00:Z","depth":0,"parameterNumber":2,"parameterNumberName":"U-component_of_WINDS"},"data":[0,0,0,-4.0134,-4.0138,-4.0298,-4.0298,-4.0545,-4.0547,0,0,0,0,0,0,0,0,0,0,0,-4.0113,-4.0115,-4.0134,-4.0138,-4.0298,-4.0298,-4.0544,-4.0547,0,0,0,0,0,0,0,0,0,0,0,-4.0111,-4.0115,-4.0118,-4.0139,-4.0298,-4.0299,-4.0544,-4.0408,0,0,0,0,0,0,0,0,0,0,-4.0246,-4.0252,-4.0114,-4.0118,-4.014,-4.0298,-4.0299,-4.0401,-4.0417,-4.049,0,-4.0563,0,-4.056,-4.0567,-4.0568,0,0,0,-4.0119,-4.0239,-4.0258,-4.0118,-4.0142,-4.0298,-4.0221,-4.0409,-4.0427,-4.0512,-4.0567,-4.0574,-4.0564,-4.0568,-4.057,-4.1062,-4.1065,0,0,-4.011,-4.0156,-4.0246,-4.0271,-4.025,-4.0216,-4.0226,-4.0419,-4.0482,-4.0567,-4.058,-4.0568,-4.057,-4.0572,-4.1059,-4.1063,0,0,0,-4.0098,-4.0151,-4.0164,-4.0262,-4.0288,-4.0221,-4.0232,-4.0474,-4.0474,-4.0582,-4.0571,-4.0572,-4.0575,-4.1055,-4.106,-4.1266,0,0,0,-4.0092,-4.0143,-4.0161,-4.0191,-4.0285,-4.0383,-4.0283,-4.0461,-4.0481,-4.0569,-4.0572,-4.0578,-4.1051,-4.1058,-4.1253,-4.1358,0,0,0,-4.0093,-4.0143,-4.0175,-4.0193,-4.0263,-4.0379,-4.039,-4.0464,-4.0476,-4.0568,-4.0579,-4.1049,-4.1057,-4.1241,-4.1338,-4.1503,0,0,0,-4.0109,-4.0355,-4.0179,-4.0449,-4.0262,-4.0503,-4.0388,-4.0565,-4.0668,-4.0573,-4.1052,-4.106,-4.1237,-4.1326,-4.1491,-4.1655,-4.1726,0,0,-4.0445,-4.0397,-4.0552,-4.0399,-4.0684,-4.0475,-4.079,-4.0841,-4.0807,-4.0978,-4.099,-4.1257,-4.1336,-4.1501,-4.2099,-4.2156,0,0,0,-4.0674,-4.0787,-4.0852,-4.0953,-4.0997,-4.1044,-4.1042,-4.106,-4.1203,-4.0904,-4.1357,-4.1403,-4.1498,-4.1574,-4.1623,-4.1702,-4.1095,-4.1094,-4.1094,-4.122,-4.1163,-4.1416,-4.1379,-4.1477,-4.1471,-4.1546,-4.1569,-4.1482,-4.159,-4.1644,-4.2013,-4.2104,-4.214,-4.2224,-4.172,-4.1721,-4.1721,-4.1722,-4.1712,-4.1864,-4.174,-4.1943,-4.1881,-4.2049,-4.2052,-4.1984,-4.2133,-4.1969,-4.2049,-4.188,-4.2205,-4.2275,-4.1737,-4.1734,-4.1732,-4.1731,-4.173,-4.2068,-4.2131,-4.2148,-4.2287,-4.2399,-4.2349,-4.2498,-4.2434,-4.2375,-4.2454,-4.2505,-4.2501,-4.2494,-4.2481,-4.2483,-4.2484,-4.2485,-4.2486,-4.2487,-4.2434,-4.2445,-4.2579,-4.2645,-4.27,-4.2765,-4.2758,-4.2811,-4.2854,-4.2796,-4.2796,-4.2701,-4.2245,-4.2135,-4.2507,-4.2503,-4.2501,-4.2499,-4.2497,-4.2964,-4.2833,-4.304,-4.3096,-4.3167,-4.3285,-4.3198,-4.3311,-4.3344,-4.342,-4.3305,-4.2977,-4.2924,-4.2885,-4.2794,-4.3314,-4.3314,-4.3314,-4.3314,-4.327,-4.3234,-4.3431,-4.3525,-4.3608,-4.355,-4.3787,-4.3782,-4.3758,-4.3775,-4.3688,-4.356,-4.3522,-4.3492,-4.344,-4.3354,-4.4005,-4.4006,-4.4007,-4.3595,-4.3564,-4.3779,-4.3752,-4.3801,-4.3846,-4.4066,-4.4179,-4.4122,-4.4033,-4.3788,-4.3759,-4.355,-4.3484,-4.3398,-4.3319,-4.316,0,0]},{"header":{"parameterUnit":"m.s-1","parameterCategory":1,"la1":30.2992,"la2":30.254,"lo1":-89.0895,"lo2":-89.0443,"dy":0.0025,"dx":0.0025,"nx":19,"ny":19,"refTime":"2026-04-05T21:00:00:Z","depth":0,"parameterNumber":3,"parameterNumberName":"V-component_of_WINDS"},"data":[0,0,0,-3.9699,-3.97,-3.9781,-3.9781,-3.9887,-3.9888,0,0,0,0,0,0,0,0,0,0,0,-3.9679,-3.968,-3.9698,-3.9701,-3.9781,-3.9781,-3.9887,-3.9888,0,0,0,0,0,0,0,0,0,0,0,-3.9679,-3.968,-3.9681,-3.9701,-3.9781,-3.9781,-3.9886,-3.9824,0,0,0,0,0,0,0,0,0,0,-3.9745,-3.9732,-3.9679,-3.9681,-3.9701,-3.9781,-3.9781,-3.9821,-3.9828,-3.9852,0,-3.9877,0,-3.9884,-3.9895,-3.9896,0,0,0,-3.9697,-3.9727,-3.9744,-3.9681,-3.9702,-3.9781,-3.9744,-3.9825,-3.9833,-3.9861,-3.9879,-3.9882,-3.9886,-3.9896,-3.9897,-4.005,-4.0051,0,0,-3.9693,-3.9696,-3.9739,-3.975,-3.974,-3.9741,-3.9746,-3.983,-3.9848,-3.9879,-3.9885,-3.9888,-3.9897,-3.9898,-4.005,-4.0051,0,0,0,-3.9682,-3.9693,-3.9708,-3.9746,-3.976,-3.9744,-3.9749,-3.9844,-3.9849,-3.9886,-3.9889,-3.9897,-3.9899,-4.0049,-4.005,-4.0095,0,0,0,-3.9679,-3.9687,-3.9707,-3.9709,-3.9759,-3.9804,-3.9762,-3.9843,-3.9852,-3.9888,-3.9897,-3.99,-4.0048,-4.0049,-4.0092,-4.0115,0,0,0,-3.9672,-3.9686,-3.9699,-3.9709,-3.9744,-3.9802,-3.9812,-3.9845,-3.9855,-3.9896,-3.99,-4.0047,-4.0049,-4.0089,-4.0111,-4.0154,0,0,0,-3.9665,-3.974,-3.97,-3.9784,-3.9744,-3.9831,-3.9811,-3.9876,-3.9917,-3.9898,-4.0048,-4.005,-4.0088,-4.0108,-4.0151,-4.019,-4.0207,0,0,-3.9761,-3.9752,-3.98,-3.9767,-3.9862,-3.9818,-3.9919,-3.9953,-3.9954,-4.0017,-4.0021,-4.0093,-4.011,-4.0154,-4.0307,-4.0321,0,0,0,-3.9831,-3.9866,-3.9891,-3.993,-3.9958,-3.9982,-4.0001,-4.0013,-4.0067,-3.9988,-4.0122,-4.0132,-4.0157,-4.0175,-4.0187,-4.0207,-4.0059,-4.0059,-4.0059,-3.9971,-3.9967,-4.0046,-4.0051,-4.0089,-4.0106,-4.0135,-4.0153,-4.014,-4.0171,-4.019,-4.0283,-4.0305,-4.0314,-4.0334,-4.0212,-4.0212,-4.0212,-4.0212,-4.0108,-4.0155,-4.0133,-4.0201,-4.0196,-4.0253,-4.027,-4.0258,-4.0308,-4.027,-4.0292,-4.0249,-4.0329,-4.0346,-4.0216,-4.0215,-4.0215,-4.0214,-4.0214,-4.0196,-4.0218,-4.0231,-4.0284,-4.0325,-4.0327,-4.0375,-4.0369,-4.0364,-4.0386,-4.0401,-4.0401,-4.0396,-4.0394,-4.0394,-4.0395,-4.0395,-4.0395,-4.0395,-4.0282,-4.0295,-4.0337,-4.0371,-4.0392,-4.042,-4.0436,-4.0456,-4.0477,-4.0469,-4.0469,-4.0449,-4.0339,-4.0309,-4.04,-4.0399,-4.0399,-4.0398,-4.0398,-4.0418,-4.0386,-4.0451,-4.0472,-4.0508,-4.0546,-4.0538,-4.058,-4.0596,-4.0619,-4.0595,-4.0515,-4.0504,-4.0495,-4.047,-4.0598,-4.0598,-4.0598,-4.0598,-4.0491,-4.0485,-4.0548,-4.0582,-4.0615,-4.0612,-4.0681,-4.0693,-4.0699,-4.0708,-4.0689,-4.0656,-4.0647,-4.0642,-4.0629,-4.0606,-4.0765,-4.0765,-4.0765,-4.0572,-4.0569,-4.063,-4.0636,-4.0663,-4.0685,-4.0748,-4.0786,-4.0787,-4.0772,-4.0713,-4.0706,-4.0654,-4.0638,-4.062,-4.0601,-4.0558,0,0]}]]